www.pogodaiklimat.ru

Архив погоды в Бремене (Германия)

Время
(UTC), дата
19 29.06
20 29.06
21 29.06
22 29.06
23 29.06
00 30.06
01 30.06
02 30.06
03 30.06
04 30.06
05 30.06
06 30.06
07 30.06
08 30.06
09 30.06
10 30.06
11 30.06
12 30.06
13 30.06
14 30.06
15 30.06
16 30.06
17 30.06
18 30.06
19 30.06
20 30.06
21 30.06
22 30.06
23 30.06
00 1.07
01 1.07
02 1.07
03 1.07
04 1.07
05 1.07
06 1.07
07 1.07
08 1.07
09 1.07
10 1.07
11 1.07
12 1.07
13 1.07
14 1.07
15 1.07
16 1.07
17 1.07
18 1.07
19 1.07
20 1.07
21 1.07
22 1.07
23 1.07
00 2.07
01 2.07
02 2.07
03 2.07
04 2.07
05 2.07
06 2.07
07 2.07
08 2.07
09 2.07
10 2.07
11 2.07
12 2.07
13 2.07
14 2.07
15 2.07
16 2.07
17 2.07
18 2.07
19 2.07
20 2.07
21 2.07
22 2.07
23 2.07
00 3.07
01 3.07
02 3.07
03 3.07
04 3.07
05 3.07
06 3.07
07 3.07
08 3.07
09 3.07
10 3.07
11 3.07
12 3.07
13 3.07
14 3.07
15 3.07
16 3.07
17 3.07
18 3.07
19 3.07
20 3.07
21 3.07
22 3.07
23 3.07
00 4.07
01 4.07
02 4.07
03 4.07
04 4.07
05 4.07
06 4.07
07 4.07
08 4.07
09 4.07
10 4.07
11 4.07
12 4.07
13 4.07
14 4.07
15 4.07
16 4.07
17 4.07
18 4.07
19 4.07
20 4.07
21 4.07
22 4.07
23 4.07
00 5.07
01 5.07
02 5.07
03 5.07
04 5.07
05 5.07
06 5.07
07 5.07
08 5.07
09 5.07
10 5.07
11 5.07
12 5.07
13 5.07
14 5.07
15 5.07
16 5.07
17 5.07
18 5.07
19 5.07
20 5.07
21 5.07
22 5.07
23 5.07
00 6.07
01 6.07
02 6.07
03 6.07
04 6.07
05 6.07
06 6.07
07 6.07
08 6.07
09 6.07
10 6.07
11 6.07
12 6.07
13 6.07
14 6.07
15 6.07
16 6.07
17 6.07
18 6.07
19 6.07
Ветер
(напр.,м/с)
Видим. Явления Облачность Т
(С)
Тd
(С)
f
(%)
Тe
(С)
Тes
(С)
Комфортность P
(гПа)
Po
(гПа)
Тmin
(С)
Tmax
(С)
R
(мм)
R24
(мм)
S
(см)
ЮВ 3-4
{6}
>70 км ясно +24.7 +11.5 44 +26 +26 жарко 1013.2 1012.6
ЮВ 3-3
{4}
>70 км ясно +23.5 +11.4 47 +25 +25 комфорт 1013.7 1013.1
В 3-5
{6}
65 км ясно +21.8 +11.8 53 +24 +24 комфорт 1013.9 1013.3
В 4-5
{6}
>70 км ясно +20.9 +11.4 55 +23 +23 комфорт 1014.1 1013.5
В 4-5
{6}
65 км ясно +20.0 +11.0 56 +22 +22 комфорт 1014.0 1013.4
В 3 >70 км ясно +19.6 +10.9 57 +21 +21 комфорт 1014.2 1013.6
В 3-4
{5}
>70 км 5/0 +17.6 +10.8 64 +18 +18 тепло 1014.1 1013.5
В 4-6
{6}
60 км ясно +18.1 +10.8 62 +18 +18 тепло 1013.5 1012.9
В 3-4
{6}
60 км ясно +16.6 +10.9 69 +16 +16 тепло 1013.4 1012.8
В 2-3
{4}
55 км ясно +16.1 +11.0 72 +16 +16 тепло 1013.1 1012.5
В 2-3
{3}
60 км ясно +18.0 +11.5 66 +19 +20 тепло 1013.0 1012.4
В 2 60 км ясно +19.9 +12.1 61 +22 +26 комфорт 1012.9 1012.3 +15.2 +26.0
В 4-6
{7}
55 км 8/0 +21.5 +13.7 61 +24 +27 комфорт 1012.9 1012.3
В 5-7
{7}
55 км ясно +23.1 +15.3 61 +27 +32 душно 1012.7 1012.1
В 5 60 км ясно +24.1 +13.5 52 +26 +33 жарко 1012.6 1012.0
ЮВ 3-6
{7}
60 км ясно +25.1 +14.1 50 +27 +40 жарко 1012.2 1011.6
В 4-6
{8}
50 км ясно +26.4 +15.0 50 +29 +40 жарко 1012.0 1011.4
ЮВ 2-4
{8}
45 км ясно +27.6 +14.5 45 +30 +46 жарко 1011.5 1010.9
С 4-5
{5}
50 км ясно +28.2 +14.0 42 +30 +40 жарко 1011.2 1010.6
ЮВ 2-4
{4}
65 км ясно +28.7 +14.1 41 +31 +43 жарко 1010.8 1010.2
СВ 3 45 км 9/0 +28.1 +15.0 45 +31 +35 душно 1010.5 1009.9
СВ 5 50 км 10/0 +29.5 +15.7 43 +32 +34 душно 1010.0 1009.4
СВ 5-7
{7}
55 км 1/0 +28.3 +15.1 45 +31 +33 душно 1009.4 1008.8
СВ 5 >70 км 3/0 +28.2 +15.2 45 +31 +31 душно 1008.8 1008.2 +19.7 +29.7
В 5-7
{7}
55 км ясно +26.9 +16.4 53 +30 +31 душно 1008.7 1008.1
СВ 4-4
{7}
55 км ясно +25.3 +16.7 59 +29 +29 душно 1008.9 1008.3
В 4 55 км 9/0 +23.9 +16.9 65 +28 +28 душно 1009.0 1008.4
З 11 35 км слаб. морось с дождем 10/10 1470 м +20.0 +15.8 77 +22 +22 комфорт 1010.4 1009.8
СВ 2 45 км в посл. час дождь 9/0 2000 м +18.2 +17.1 93 +19 +19 тепло 1010.7 1010.1
ЮЗ 4 24 км в посл. час дождь 10/10 1000 м +18.2 +17.4 95 +18 +18 тепло 1011.3 1010.7 4
ЮЗ 6 26 км 8/8 210 м +17.4 +16.3 93 +17 +17 тепло 1011.5 1010.9
З 6 14 км слаб. дождь 9/9 180 м +16.7 +15.7 94 +16 +16 тепло 1012.2 1011.6
З 6 3800 м слаб. дождь 9/9 180 м +15.1 +14.3 95 +13 +13 по сезону 1013.2 1012.6 0.0
З 6 40 км в посл. час дождь 10/10 360 м +15.1 +13.7 91 +13 +13 по сезону 1014.0 1013.4
З 5 16 км слаб. дождь 10/10 400 м +14.7 +13.4 92 +13 +13 тепло 1014.6 1014.0
З 4 40 км в посл. час дождь 10/10 300 м +15.1 +13.4 90 +14 +14 по сезону 1015.1 1014.5 +14.6 +28.2 4
З 5 35 км слаб. морось 10/10 400 м +15.2 +12.9 86 +14 +14 по сезону 1015.2 1014.6
З 5 28 км слаб. дождь 9/9 500 м +15.7 +12.9 83 +15 +15 тепло 1015.8 1015.2
ЮЗ 4 9000 м слаб. дождь 10/10 400 м +15.3 +13.6 90 +14 +14 прохладно 1016.3 1015.7 0.6
З 4 20 км в посл. час дождь 10/10 480 м +15.9 +13.1 83 +15 +15 по сезону 1016.9 1016.3
ЮЗ 4 23 км 10/10 570 м +16.7 +13.4 81 +16 +16 по сезону 1017.1 1016.5
ЮЗ 6 35 км 10/10 750 м +18.4 +11.8 65 +18 +18 прохладно 1017.0 1016.4 0.0
З 6 40 км 10/10 1110 м +18.9 +10.7 59 +19 +19 по сезону 1017.3 1016.7
З 6 50 км 10/10 1230 м +18.6 +10.5 59 +19 +19 по сезону 1017.4 1016.8
ЮЗ 5 60 км 10/0 +20.2 +10.5 54 +22 +24 комфорт 1017.6 1017.0
ЮЗ 3 50 км 10/10 1320 м +20.7 +10.5 52 +23 +23 комфорт 1017.8 1017.2
ЮЗ 5 55 км 9/9 1470 м +20.2 +10.1 52 +22 +22 комфорт 1017.9 1017.3
З 5 >70 км 10/10 1000 м +19.8 +10.9 56 +21 +21 комфорт 1018.4 1017.8 +15.0 +21.3
СЗ 3-4
{6}
50 км 3/0 +18.9 +10.8 59 +20 +20 тепло 1018.6 1018.0
З 2 55 км 8/8 1500 м +16.6 +11.4 71 +17 +17 по сезону 1019.6 1019.0
ЮЗ 2-3
{6}
22 км ясно +15.1 +11.4 79 +15 +15 по сезону 1020.3 1019.7
ЮЗ 1-2
{3}
55 км 9/0 2000 м +14.2 +11.1 82 +15 +15 по сезону 1021.1 1020.5
Ю 1-2
{2}
55 км ясно +13.6 +11.1 85 +14 +14 по сезону 1021.4 1020.8
Ю 1 45 км ясно +12.6 +10.8 89 +13 +13 по сезону 1021.4 1020.8
ЮЗ 2-3
{3}
40 км ясно +10.7 +9.2 90 +9 +9 по сезону 1021.4 1020.7
ЮЗ 2-2
{3}
30 км ясно +11.0 +9.3 89 +10 +10 по сезону 1021.4 1020.7
ЮЗ 2-3
{4}
35 км ясно +10.8 +8.9 88 +9 +9 прохладно 1021.6 1020.9
Ю 2-3
{3}
40 км ясно +11.1 +8.5 84 +10 +10 по сезону 1022.0 1021.3
Ю 2-4
{4}
45 км ясно +13.4 +9.9 79 +13 +14 тепло 1022.3 1021.7
ЮЗ 3 50 км ясно +15.9 +11.1 73 +15 +18 по сезону 1022.6 1022.0 +10.5 +19.9
Ю 4-5
{6}
50 км ясно +18.3 +10.7 61 +18 +23 тепло 1022.7 1022.1
ЮЗ 6-8
{8}
55 км ясно +20.1 +11.0 56 +21 +25 комфорт 1023.0 1022.4
ЮЗ 6 >70 км ясно +21.4 +9.6 47 +23 +28 комфорт 1023.0 1022.4
Ю 6 55 км 8/8 1500 м +22.2 +8.5 41 +23 +25 комфорт 1022.5 1021.9
Ю 4-6
{9}
60 км 6/0 2000 м +22.5 +8.9 42 +24 +32 комфорт 1022.3 1021.7
Ю 5 >70 км 9/0 2000 м +22.9 +8.1 39 +24 +29 комфорт 1021.9 1021.3
Ю 5-10
{10}
>70 км 4/0 2000 м +22.8 +7.9 38 +24 +30 комфорт 1021.5 1020.9
ЮЗ 5 >70 км 9/0 2000 м +23.7 +7.4 35 +24 +28 комфорт 1021.1 1020.5
ЮЗ 5 55 км 9/0 2000 м +25.1 +8.0 34 +25 +28 комфорт 1020.6 1020.0
Ю 2 60 км 9/0 2000 м +25.3 +9.4 37 +26 +29 жарко 1020.0 1019.4
ЮЗ 2 60 км 10/0 2000 м +25.0 +8.8 36 +26 +27 жарко 1019.4 1018.8
З 1 55 км 8/0 +24.1 +8.3 36 +25 +25 комфорт 1019.0 1018.4 +15.7 +25.6
СЗ 1 60 км 4/0 +24.9 +10.0 39 +26 +26 жарко 1018.5 1017.9
СВ 3 65 км 10/0 2000 м +21.4 +10.1 48 +23 +23 комфорт 1018.4 1017.8
СВ 3 >70 км 10/0 2000 м +21.0 +10.8 52 +23 +23 комфорт 1018.6 1018.0
СВ 3 >70 км 10/0 +19.4 +11.4 60 +21 +21 комфорт 1018.2 1017.6
СВ 3 >70 км в посл. час дождь 10/0 +19.0 +11.8 63 +20 +20 тепло 1017.8 1017.2
СВ 3 >70 км 10/0 +17.5 +11.8 69 +18 +18 тепло 1017.1 1016.5 0.0
В 3 60 км 10/0 +16.8 +11.6 71 +17 +17 тепло 1016.7 1016.1
З 1-2
{3}
50 км ясно +14.1 +11.7 85 +14 +14 тепло 1016.4 1015.8
ЮВ 1 40 км 4/0 +13.4 +11.5 88 +14 +14 по сезону 1016.3 1015.7
ЮЗ 1-1
{1}
30 км 3/0 +13.2 +11.6 90 +13 +14 по сезону 1016.2 1015.6
ЮЗ 1-1
{2}
40 км 10/0 +15.2 +12.7 85 +16 +17 тепло 1016.4 1015.8
З 1 45 км ясно +17.8 +13.1 74 +19 +23 тепло 1016.6 1016.0 +12.8 +25.0 0.0
СЗ 2-3
{3}
>70 км 3/0 +21.2 +12.1 56 +23 +29 комфорт 1016.6 1016.0
З 2 50 км 9/0 +23.8 +10.4 43 +25 +30 комфорт 1016.7 1016.1
СЗ 2 >70 км 1/0 +24.8 +6.3 30 +25 +37 комфорт 1016.9 1016.3
С 2-4
{4}
60 км 1/1 1500 м +26.0 +10.3 37 +27 +40 жарко 1016.7 1016.1
З 4 >70 км 6/0 2000 м +25.9 +10.0 37 +27 +34 жарко 1016.6 1016.0
СЗ 5 55 км 4/0 2000 м +25.7 +11.5 41 +27 +34 жарко 1016.3 1015.7
З 4-7
{8}
65 км 9/0 +25.5 +11.7 42 +27 +32 жарко 1016.2 1015.6
З 4 >70 км 10/0 2000 м +24.9 +11.8 44 +26 +31 жарко 1016.0 1015.4
С 3 55 км в посл. час дождь 10/10 180 м +21.6 +16.8 74 +26 +26 душно 1016.5 1015.9 3
С 3-5
{7}
60 км ясно +22.5 +15.1 63 +26 +31 жарко 1016.3 1015.7
СВ 2-3
{5}
60 км 5/0 +23.3 +14.5 58 +27 +29 душно 1016.1 1015.5
СЗ 8 60 км ясно +20.3 +12.8 62 +22 +22 комфорт 1017.1 1016.5 +17.8 +27.5
СЗ 7-9
{11}
60 км 3/0 +18.1 +11.8 67 +17 +17 прохладно 1017.7 1017.1
З 4 >70 км 9/0 2000 м +16.8 +12.4 75 +16 +16 прохладно 1018.2 1017.6
З 3-3
{11}
65 км ясно +15.1 +12.4 84 +14 +14 по сезону 1018.7 1018.1
ЮЗ 1-1
{3}
55 км ясно +13.8 +12.5 92 +14 +14 по сезону 1018.8 1018.2
ЮЗ 2-2
{3}
30 км ясно +12.3 +11.4 94 +11 +11 прохладно 1018.7 1018.1
ЮЗ 2 21 км в посл. час туман ясно +11.4 +10.8 96 +10 +10 прохладно 1018.8 1018.1
З 2-2
{3}
7000 м в посл. час туман ясно +11.4 +10.9 97 +10 +10 по сезону 1018.7 1018.0
З 2-3
{3}
500 м туман ясно +10.5 +10.2 98 +9 +9 по сезону 1018.8 1018.1
СЗ 3-3
{3}
27 км в посл. час туман ясно +11.2 +10.7 97 +9 +9 прохладно 1018.7 1018.0
З 2-2
{4}
14 км ясно +10.8 +9.8 94 +9 +10 прохладно 1019.2 1018.5
З 2-3
{3}
22 км ясно +13.2 +11.4 89 +12 +14 по сезону 1019.6 1019.0
З 3 45 км 4/0 +15.7 +11.7 77 +15 +17 по сезону 1019.6 1019.0 +10.3 +20.5
ЮЗ 5 55 км 9/0 +17.2 +10.9 66 +17 +18 тепло 1019.6 1019.0
З 5-6
{7}
>70 км 3/0 +18.7 +10.1 57 +19 +23 тепло 1019.7 1019.1
З 4 >70 км 9/9 1140 м +20.8 +11.2 54 +23 +24 комфорт 1019.3 1018.7
З 5 >70 км 8/8 1200 м +21.5 +10.7 50 +23 +25 комфорт 1019.4 1018.8
З 6 >70 км 8/8 1350 м +21.5 +10.4 49 +23 +24 комфорт 1019.1 1018.5
З 7 >70 км 9/9 1500 м +22.1 +10.1 46 +24 +24 комфорт 1018.7 1018.1
З 7-11
{12}
>70 км 3/3 1500 м +22.2 +9.5 44 +24 +27 комфорт 1018.1 1017.5
З 7 55 км 8/8 1500 м +23.7 +10.3 43 +25 +26 комфорт 1018.2 1017.6
СЗ 7 50 км 4/4 1500 м +23.2 +10.0 43 +25 +26 комфорт 1018.2 1017.6
З 7 >70 км 6/6 1500 м +23.1 +9.5 42 +25 +25 комфорт 1018.1 1017.5
З 7-10
{11}
45 км 4/4 1500 м +22.4 +8.8 42 +24 +24 комфорт 1018.1 1017.5
СЗ 7 >70 км 3/3 1500 м +20.8 +9.3 48 +22 +22 комфорт 1018.4 1017.8 +15.6 +24.5
СЗ 5-7
{8}
>70 км ясно +19.8 +10.9 56 +21 +21 комфорт 1018.8 1018.2
СЗ 4-5
{7}
>70 км ясно +17.5 +11.1 66 +17 +17 прохладно 1019.5 1018.9
СЗ 3-3
{8}
60 км ясно +15.0 +10.4 74 +14 +14 прохладно 1020.0 1019.4
З 1-2
{3}
60 км ясно +13.5 +10.4 82 +14 +14 по сезону 1020.1 1019.5
ЮЗ 2-2
{2}
45 км 3/0 +11.5 +9.9 90 +10 +10 холодно 1020.4 1019.7
З 1 55 км ясно +11.8 +10.2 90 +12 +12 по сезону 1020.6 1019.9
Ю 1-2
{2}
45 км ясно +11.3 +10.3 94 +11 +11 по сезону 1020.6 1019.9
З 1-1
{2}
35 км ясно +11.0 +9.8 92 +11 +11 по сезону 1020.4 1019.7
Ю 1-1
{2}
22 км ясно +10.1 +9.5 96 +10 +10 прохладно 1020.5 1019.8
Ю 1-1
{1}
40 км ясно +10.5 +9.2 92 +10 +10 прохладно 1020.7 1020.0
Ю 1-1
{2}
35 км ясно +12.3 +8.5 78 +12 +14 по сезону 1021.0 1020.3
ЮЗ 2 50 км ясно +14.9 +9.9 72 +15 +18 по сезону 1021.1 1020.5 +9.9 +21.2
З 5-8
{8}
60 км ясно +18.2 +10.3 60 +18 +21 тепло 1021.4 1020.8
З 6-7
{8}
60 км ясно +18.7 +8.8 53 +19 +22 тепло 1021.5 1020.9
ЮЗ 5 65 км 8/8 1470 м +20.0 +6.4 41 +21 +22 комфорт 1021.5 1020.9
З 7 >70 км 6/6 1470 м +19.7 +7.6 45 +20 +22 тепло 1021.6 1021.0
З 4 >70 км 10/10 1440 м +19.4 +8.5 49 +20 +20 тепло 1021.7 1021.1
З 6 55 км 10/0 2000 м +20.9 +8.5 45 +22 +25 комфорт 1021.4 1020.8
З 6 55 км 9/9 1500 м +21.4 +8.3 43 +23 +23 комфорт 1021.2 1020.6
З 7 60 км 10/10 1500 м +20.3 +8.5 47 +21 +21 комфорт 1021.3 1020.7
СЗ 5 >70 км 9/9 1500 м +21.1 +9.2 46 +22 +23 комфорт 1021.2 1020.6
СЗ 6-8
{11}
65 км 9/0 +19.5 +10.9 58 +20 +22 по сезону 1021.5 1020.9
СЗ 7 65 км 9/9 1350 м +19.4 +9.5 53 +20 +20 по сезону 1021.6 1021.0
СЗ 6 65 км 9/9 1500 м +18.8 +8.7 52 +19 +19 по сезону 1021.8 1021.2 +14.9 +22.8
СЗ 6 >70 км 9/0 2000 м +17.3 +8.8 57 +17 +17 прохладно 1022.2 1021.6
З 3-4
{8}
>70 км 1/0 2000 м +15.1 +8.9 66 +14 +14 холодно 1022.5 1021.9
З 3 60 км 6/0 +12.3 +8.1 76 +11 +11 холодно 1022.8 1022.1
З 3-4
{4}
65 км 8/0 2000 м +12.3 +8.8 79 +11 +11 холодно 1023.2 1022.5
З 4-5
{5}
60 км ясно +11.0 +8.1 82 +9 +9 холодно 1023.2 1022.5
З 2 60 км 9/0 2000 м +11.7 +8.9 83 +11 +11 по сезону 1023.2 1022.5
З 2-3
{3}
55 км 10/10 1500 м +12.0 +9.7 86 +11 +11 по сезону 1023.3 1022.6
З 3-3
{3}
50 км 10/10 1500 м +12.6 +10.0 84 +11 +11 тепло 1023.1 1022.4
ЮЗ 2 45 км 10/10 1500 м +12.3 +10.1 86 +11 +11 по сезону 1023.1 1022.4
З 4-5
{5}
50 км 10/10 1500 м +13.0 +10.1 83 +11 +11 по сезону 1023.3 1022.6
З 4-5
{5}
50 км 10/10 1500 м +13.5 +10.1 80 +12 +12 тепло 1023.2 1022.6
З 4 60 км 10/0 2000 м +14.8 +9.9 72 +14 +15 по сезону 1023.4 1022.8 +10.3 +18.7
З 6-8
{8}
65 км 10/0 2000 м +15.5 +9.5 67 +14 +15 тепло 1023.5 1022.9
СЗ 7 50 км 10/10 870 м +16.0 +8.9 63 +15 +15 тепло 1023.9 1023.3
З 6 55 км 10/10 930 м +17.4 +8.6 56 +17 +17 тепло 1023.8 1023.2
З 7 65 км 10/10 930 м +17.5 +8.4 55 +17 +17 тепло 1023.9 1023.3
З 7 55 км 10/10 1170 м +17.4 +8.4 55 +16 +16 тепло 1023.9 1023.3
З 6 >70 км 9/9 1140 м +18.2 +7.9 51 +18 +18 по сезону 1023.6 1023.0
СЗ 6 45 км 9/9 1260 м +19.5 +8.5 49 +20 +21 тепло 1023.2 1022.6
З 5 65 км 9/9 1300 м +20.2 +8.0 45 +21 +22 комфорт 1022.8 1022.2
СЗ 6 60 км 6/0 2000 м +19.9 +6.9 43 +20 +23 тепло 1022.4 1021.8
З 5-7
{9}
65 км 10/10 1500 м +18.9 +8.2 50 +19 +19 тепло 1022.2 1021.6
З 5 >70 км 10/10 1440 м +19.1 +9.0 52 +20 +20 тепло 1021.5 1020.9
З 8 >70 км 10/10 1000 м +18.0 +9.1 56 +17 +17 по сезону 1021.3 1020.7 +14.7 +21.7
ЮЗ 6 >70 км 10/10 1230 м +17.1 +9.1 59 +16 +16 по сезону 1020.8 1020.2
Местоположение метеостанции Бремен (Германия): широта 53.05 долгота 8.80 высота над уровнем моря 3 м.
В архиве по умолчанию представлена погода в Бремене за последнюю неделю. Архивные данные за месяц целиком и за предыдущие месяцы, начиная с января 2011 года, Вы можете получить, выбрав интересующий диапазон дат из раскрывающегося списка и нажав кнопку "Найти!".
*Определитесь, кто Вы:
Внимание! Время в таблицах - всемирное. Для получения местного времени необходимо прибавить поправку, которая равна 1 ч.
Смотрите также архив погоды в соседних городах и на ближайших метеорологических станциях:
Партнеры нашего сайта:      
Пояснения к столбцам:
  • Ветер - указаны скорость ветра в м/с - средняя за 10 мин, порывы в срок и между сроками (в фигурных скобках) и направление, откуда дует ветер: С - северный,
  • СВ - северо-восточный, В - восточный, ЮВ - юго-восточный, Ю - южный, ЮЗ - юго-западный, З - западный, СЗ - северо-западный.
  • Видимость - горизонтальная дальность видимости в метрах или километрах. При видимости от 1 до 10 км при отсутствии осадков обычно наблюдается дымка, при ухудшении видимости до 1 км и менее - туман. В сухую погоду видимость может ухудшаться дымом, пылью или мглою.
  • Явления - указаны атмосферные явления, наблюдавшиеся в срок или в последний час перед сроком; фигурными скобками обозначены явления, наблюдавшиеся между сроками (за 1-3 часа до срока); квадратными скобками обозначены град или гололедные отложения с указанием их диаметра в мм.
  • Облачность - указаны через наклонную черту общая и нижняя облачность в баллах и высота нижней границы облаков в метрах; квадратными скобками обозначены формы облаков: Ci - перистые, Cs - перисто-слоистые, Cc - перисто-кучевые, Ac - высококучевые, As - высокослоистые, Sc - слоисто-кучевые, Ns - слоисто-дождевые, Cu - кучевые, Cb - кучево-дождевые. Подробнее классификацию облаков см. в Атласе облаков (PDF).
  • T - Температура воздуха - температура, измеренная на высоте 2 м над землей.
  • Td - Температура точки росы - температура, при понижении до которой содержащийся в воздухе водяной пар достигнет насыщения.
  • f - Относительная влажность воздуха - влажноcть воздуха, измеренная на высоте 2 м над землей.
  • Te - Эффективная температура - температура, которую ощущает одетый по сезону человек в тени. Характеристика душности погоды. При расчете учитывается влияние влажности воздуха и скорости ветра на теплоощущения человека.
  • Tes - Эффективная температура на солнце - температура, которую ощущает человек, с поправкой на солнечный нагрев. Характеристика знойности погоды. Зависит от высоты солнца над горизонтом, облачности и скорости ветра. Ночью, в пасмурную погоду, а также при ветре 12 м/с и более поправка равна нулю.
  • P - Атмосферное давление - приведенное к уровню моря атмосферное давление.
  • Po - Атмосферное давление - измеренное на уровне метеостанции атмосферное давление.
  • Tmin - Минимальная температура - минимум температуры воздуха на высоте 2 м над землей.
  • Tmax - Максимальная температура - максимум температуры воздуха на высоте 2 м над землей.
  • R - Количество осадков - Количество выпавших осадков за период времени, мм. При наведении курсора мыши на число - период времени, за который выпало указанное количество осадков.
  • R24 - Количество осадков - Количество выпавших осадков за 24 часа, мм.
  • S - Снежный покров - Высота снежного покрова, см. При наведении курсора мыши на число - состояние снежного покрова и степень покрытия местности в баллах.